COSMOS 1275 DEB

Satellite information

Favourite Embed

Satellite Type and Status

DEBRISIN ORBIT

Key statistics

Satellite COSMOS 1275 DEB at a glance.

Uptime

16209

Days in orbit

Revolutions

≈ 14.2

Per day

Orbit

LEO

Low Earth Orbit

Inclination

82.8

Latest

Satellite identification and parameters

Extended collection of information and parameters for COSMOS 1275 DEB.

Object identification

Identified? True

Debris? True

Object name: COSMOS 1275 DEB

International designator: 1981-053HX

Object number (NORAD): 14364

Object ID (CCSDS): 14364

Country: COMMONWEALTH OF INDEPENDENT STATES (CIS)

Current information (Y/N): Y

RCS size: SMALL

Orbital parameters

Period: 101.172 minutes

Inclination: 82.774 deg

SMA: 7192.297 km

Apoapsis: 834.308 km

Periapsis: 794.016 km

RAAN: 112.3821 deg

Eccentricy: 0.00280106

Argument of periapsis: 233.0404 deg

Mean anomaly: 126.8214 deg

Mean motion: 14.23315943 rev/day

Mean motion (dot): 0.00007358 rev/day2

B* drag term: 0.0032273172 1/REarth

Two-line elements (TLE)

Creation date: Oct. 20, 2025, 2:10 a.m.

Reference frame: TEME

Reference center: EARTH

Epoch: Oct. 19, 2025, 10:21 p.m. UTC

TLE line 0: 0 COSMOS 1275 DEB

TLE line 1: 1 14364U 81053HX 25292.93183310 .00007358 00000-0 32273-2 0 9995

TLE line 2: 2 14364 82.7740 112.3821 0028011 233.0404 126.8214 14.23315943193400

Live tracking on map

Real-time ground track for satellite COSMOS 1275 DEB.

In-orbit conjunctions

A list of the most updated potential collisions computed for object COSMOS 1275 DEB.

Target Orbit TCA Probability of collision Miss distance Type
FENGYUN 1C DEB SSO 2025-09-20 11:44:58 0.0001037565 433.0 (m) DEBRIS
FENGYUN 1C DEB SSO 2024-11-15 01:33:41 0.000167367 209.0 (m) DEBRIS

Associated space launch

Navigation satellite providing location information for the Tsiklon-B navigation system

COSMOS 1275 DEB was lifted into orbit during the mission ‘Kosmos-3M | Parus 27’, on board a Kosmos-3M space rocket.

The launch took place on June 4, 1981, 3:41 p.m. from 132/2.

For more information about the launch, click the button.

Launch to space Kosmos-3M | Parus 27
Kosmos-3M | Parus 27

Agency: N/A

Status: Launch Successful

Launch date: June 4, 1981, 3:41 p.m. UTC

Rocket: Kosmos-3M

Launch pad: 132/2

Location: Plesetsk Cosmodrome, Russian Federation

...

Latest news about this satellite

There are no fresh news available about this satellite. Check back as we update our databases every day.


Newsletter sign-up

Weekly statistics, charts and insights to help you stay on top of the space industry.